Regional Weather Roundup
Issued by NWS Midland/Odessa, TX

Home | Current Version | Previous Version | Text Only | Print | Product List | Glossary On
Versions: 1 2 3 4 5 6 7 8 9 10 11 12 13 14 15 16 17 18 19 20 21 22 23 24 25 26 27 28 29 30 31 32 33 34 35 36 37 38 39 40 41 42 43 44 45 46 47 48 49 50
000
ASUS44 KMAF 020210
RWRMAF
MIDLAND AREA WEATHER ROUNDUP
NATIONAL WEATHER SERVICE MIDLAND TX
800 PM CST SUN FEB 01 2015

...IN SOUTHWEST TEXAS AND SOUTHEAST NEW MEXICO...

CITY           SKY/WX    TMP DP  RH WIND       PRES   REMARKS
ALPINE         CLOUDY    46  41  84 E9        30.24R
ANDREWS        FAIR      41  34  76 NE7       30.24R WCI  36
ARTESIA        CLOUDY    48  37  66 E8        30.21R
BIG SPRING     CLEAR     43  31  62 NE10      30.26R WCI  38
CARLSBAD       CLOUDY    48  40  73 CALM      30.18R
DRYDEN           N/A     52  42  69 N16       30.16R
FORT STOCKTON  CLEAR     44  41  89 E8        30.21R WCI  39
GUAD PASS      CLOUDY    39  36  89 E25       30.17R WCI  28
HOBBS          CLOUDY    43  36  75 E9        30.23R WCI  37
MARFA          CLEAR     43  37  81 N10       30.19R WCI  37
MIDLAND AIRPK  PTCLDY    43  36  76 NE6       30.24R WCI  39
MIDLAND INTL   CLEAR     43  36  76 NE8       30.23R WCI  38
ODESSA         CLEAR     43  35  73 NE10      30.22R WCI  37
PECOS          CLOUDY    47  40  76 NE6       30.21R
PRESIDIO       FAIR      57  43  58 N15G29    30.10R
SEMINOLE       CLOUDY    43  33  68 CALM      30.25R
SNYDER         CLEAR    N/A N/A N/A NE8       30.27R
WINK           CLEAR     46  35  65 E6        30.20R
$$
...OTHER STATIONS IN TEXAS...

CITY           SKY/WX    TMP DP  RH WIND       PRES   REMARKS
ABILENE        PTCLDY    41  28  60 N9        30.25R WCI  35
AMARILLO       CLOUDY    30  20  66 N8        30.27R WCI  22
AUSTIN         PTCLDY    54  40  59 N16       30.14R
BROWNSVILLE    CLOUDY    68  63  84 SW5       29.98R
CORPUS CHRISTI CLOUDY    69  61  75 N8        29.98R
DALLAS FTW     PTCLDY    42  28  57 N13       30.20R WCI  35
DEL RIO        CLEAR     59  46  62 N12       30.11R
EL PASO        PTCLDY    53  43  68 SE3       30.10R
HOUSTON INT    CLOUDY    60  46  59 N23G30    30.04R
LUBBOCK        CLOUDY    38  28  67 NE8       30.26R WCI  32
SAN ANGELO     CLEAR     44  33  65 NE12      30.22R WCI  38
SAN ANTONIO    MOCLDY    59  45  59 N15G25    30.09R
WACO           CLEAR     45  33  63 N16       30.18R WCI  38
WICHITA FALLS  NOT AVBL
$$
...OTHER LOCATIONS IN NEW MEXICO...

CITY           SKY/WX    TMP DP  RH WIND       PRES   REMARKS
ALAMAGORDO     CLEAR     46  37  71 S5        30.13R
ALBUQUERQUE    CLEAR     43  20  39 N9        30.17R WCI  38
CANNON AFB     NOT AVBL
CLOVIS         CLOUDY    36  27  69 E12       30.22R WCI  27
HOLLOMAN AFB   CLEAR     49  39  68 S8        30.11R
ROSWELL        CLOUDY    47  37  68 CALM      30.19R
RUIDOSO        CLOUDY    34  32  93 SE5       30.20R WCI  30
SANTA FE       CLEAR     30  25  81 N7        30.14R WCI  23
TRUTH OR CONSE CLEAR     49  34  56 NE3       30.12R
TUCUMCARI      CLOUDY    37  24  59 E12       30.21R WCI  29
$$


USA.gov is the U.S. government's official web portal to all federal, state and local government web resources and services.